星链-31899 (STARLINK-31899 )

导读 | 豆包AI

STARLINK-31899是美国SpaceX星链互联网星座的v2.0 mini卫星,于2024年5月23日由猎鹰9号火箭发射入轨。它运行在近地轨道,配备相控阵天线与先进推进技术,支持自动避碰功能。该卫星旨在为全球提供高速低延迟互联网接入,尤其服务偏远地区,助力星链星座扩展,推动全球互联网覆盖普及与数字化发展。

基本信息
目录编号:
59850
目录名称:
STARLINK-31899
国际标识:
2024-097R
轨道中心:
EARTH
卫星名称:
星链-31899
卫星全名:
星链-31899 (STARLINK-31899 )
卫星状态:
在轨 (已飞行661 天)
发射日期:
2024-05-23 UTC
国别 :
美国 (US)
星等 :
--
轨道信息
数据来源 国际轨道数据
星历时间: 2026-03-15T05:28:27+0800
20小时前
查看轨道信息
半长轴: 6861.154km
偏心率: 0.0001615
轨道倾角: 43.001°
近地点辐角 270.557°
升交点赤经 244.894°
平近点角 89.510°
近地点: 481.908km
远地点: 484.126km
周期: 94.266分钟
每日圈数: 15.275908
详细信息
固有亮度:
5
最大亮度:
1.5
卫星平台:
Starlink v2.0 mini
覆盖范围:
全球
运营商:
太空探索技术公司
运营商所在国:
美国
制造商(研发单位):
太空探索技术公司
制造商所在国:
美国
使用方式:
暂无
卫星简介
星链(Starlink)计划是由太空探索技术公司(SpaceX)提出的一个巨型低轨卫星互联网星座项目,计划在2019年至2024年间在太空搭建由约1.2万颗卫星组成的“星链”网络,其中1584颗将部署在地球上空550千米处的近地轨道,并从2020年开始工作。该卫星仍在工作。
2D轨道图
3D轨道图
轨道高度分析图
轨道倾角分析图
轨道综合分析图
查看轨道综合分析图